TimePST,TemperatureF,Dew PointF,Humidity,Sea Level PressureIn,VisibilityMPH,Wind Direction,Wind SpeedMPH,Gust SpeedMPH,PrecipitationIn,Events,Conditions,WindDirDegrees,DateUTC
12:08 AM,44.6,41.0,87,30.35,0.5,Calm,Calm,-,N/A,Fog,Fog,0,2013-02-12 08:08:00
12:41 AM,44.6,41.0,87,30.35,0.5,Calm,Calm,-,N/A,Fog,Fog,0,2013-02-12 08:41:00
12:53 AM,45.0,41.0,86,30.36,1.5,Calm,Calm,-,N/A,,Overcast,0,2013-02-12 08:53:00
1:16 AM,44.6,42.8,93,30.35,2.5,Calm,Calm,-,N/A,,Overcast,0,2013-02-12 09:16:00
1:32 AM,44.6,41.0,87,30.36,2.0,Calm,Calm,-,N/A,,Overcast,0,2013-02-12 09:32:00
1:45 AM,44.6,41.0,87,30.36,4.0,Calm,Calm,-,N/A,,Overcast,0,2013-02-12 09:45:00
1:53 AM,45.0,42.1,90,30.36,4.0,Calm,Calm,-,N/A,,Overcast,0,2013-02-12 09:53:00
2:21 AM,44.6,42.8,93,30.35,2.5,Calm,Calm,-,N/A,,Overcast,0,2013-02-12 10:21:00
2:30 AM,44.6,41.0,87,30.35,3.0,Calm,Calm,-,N/A,,Overcast,0,2013-02-12 10:30:00
2:34 AM,44.6,41.0,87,30.35,2.5,Calm,Calm,-,N/A,,Overcast,0,2013-02-12 10:34:00
2:53 AM,45.0,42.1,90,30.36,4.0,Calm,Calm,-,N/A,,Overcast,0,2013-02-12 10:53:00
3:11 AM,44.6,42.8,93,30.35,1.8,Calm,Calm,-,0.00,Rain,Light Rain,0,2013-02-12 11:11:00
3:26 AM,44.6,42.8,93,30.34,1.2,Calm,Calm,-,0.00,,Overcast,0,2013-02-12 11:26:00
3:45 AM,44.6,42.8,93,30.35,0.8,Calm,Calm,-,0.00,,Mist,0,2013-02-12 11:45:00
3:53 AM,45.0,42.1,90,30.35,0.8,Calm,Calm,-,0.00,,Mist,0,2013-02-12 11:53:00
4:32 AM,44.6,41.0,87,30.34,0.8,Calm,Calm,-,0.01,,Mist,0,2013-02-12 12:32:00
4:40 AM,44.6,42.8,93,30.34,1.0,Calm,Calm,-,0.01,,Mist,0,2013-02-12 12:40:00
4:53 AM,45.0,42.1,90,30.35,2.0,Calm,Calm,-,0.01,,Overcast,0,2013-02-12 12:53:00
5:10 AM,44.6,42.8,93,30.34,1.5,Calm,Calm,-,N/A,,Overcast,0,2013-02-12 13:10:00
5:20 AM,44.6,42.8,93,30.34,1.0,Calm,Calm,-,N/A,,Mist,0,2013-02-12 13:20:00
5:28 AM,44.6,42.8,93,30.34,1.0,Calm,Calm,-,N/A,,Mist,0,2013-02-12 13:28:00
5:53 AM,45.0,42.1,90,30.35,1.8,Calm,Calm,-,N/A,,Overcast,0,2013-02-12 13:53:00
6:01 AM,44.6,42.8,93,30.34,2.0,Calm,Calm,-,N/A,,Overcast,0,2013-02-12 14:01:00
6:12 AM,44.6,42.8,93,30.35,1.2,Calm,Calm,-,N/A,,Overcast,0,2013-02-12 14:12:00
6:36 AM,44.6,42.8,93,30.36,0.8,Calm,Calm,-,N/A,,Mist,0,2013-02-12 14:36:00
6:53 AM,45.0,42.1,90,30.36,0.8,SE,3.5,-,0.01,,Mist,140,2013-02-12 14:53:00
7:29 AM,44.6,42.8,93,30.36,1.0,SE,3.5,-,N/A,,Mist,140,2013-02-12 15:29:00
7:53 AM,45.0,42.1,90,30.37,0.8,Calm,Calm,-,N/A,,Mist,0,2013-02-12 15:53:00
8:06 AM,44.6,42.8,93,30.37,0.2,SSE,3.5,-,N/A,Fog,Fog,160,2013-02-12 16:06:00
8:13 AM,44.6,42.8,93,30.37,0.5,SSE,5.8,-,0.01,Fog,Fog,150,2013-02-12 16:13:00
8:29 AM,44.6,42.8,93,30.37,0.2,SSE,4.6,-,0.01,Fog,Fog,150,2013-02-12 16:29:00
8:47 AM,44.6,42.8,93,30.37,0.5,Calm,Calm,-,0.02,Fog,Fog,0,2013-02-12 16:47:00
8:48 AM,45.0,42.1,90,30.38,0.5,SSE,3.5,-,0.02,Fog,Fog,160,2013-02-12 16:48:00
9:13 AM,46.4,42.8,87,30.38,0.2,Calm,Calm,-,N/A,Fog,Fog,0,2013-02-12 17:13:00
9:53 AM,46.9,43.0,86,30.41,0.2,SSW,3.5,-,N/A,Fog,Fog,200,2013-02-12 17:53:00
9:59 AM,46.4,42.8,87,30.40,0.5,South,4.6,-,0.01,Fog,Fog,170,2013-02-12 17:59:00
10:45 AM,46.4,44.6,93,30.39,0.5,South,5.8,-,0.03,Fog-Rain,Light Rain,190,2013-02-12 18:45:00
10:53 AM,48.0,44.1,86,30.39,0.2,Calm,Calm,-,0.04,Fog-Rain,Light Rain,0,2013-02-12 18:53:00
11:07 AM,48.2,44.6,87,30.39,0.5,Calm,Calm,-,0.01,Fog,Fog,0,2013-02-12 19:07:00
11:35 AM,48.2,44.6,87,30.39,1.0,South,4.6,-,0.01,,Mist,180,2013-02-12 19:35:00
11:46 AM,48.2,44.6,87,30.38,2.0,South,3.5,-,0.01,,Overcast,190,2013-02-12 19:46:00
11:53 AM,48.0,44.1,86,30.39,4.0,South,5.8,-,0.01,,Overcast,190,2013-02-12 19:53:00
11:59 AM,48.2,44.6,87,30.37,1.8,Variable,4.6,-,N/A,,Overcast,0,2013-02-12 19:59:00
12:03 PM,48.2,44.6,87,30.38,0.8,Variable,4.6,-,N/A,,Overcast,0,2013-02-12 20:03:00
12:14 PM,48.2,44.6,87,30.37,0.5,South,4.6,-,N/A,Fog,Fog,180,2013-02-12 20:14:00
12:22 PM,48.2,44.6,87,30.37,0.2,South,5.8,-,N/A,Fog,Fog,180,2013-02-12 20:22:00
12:46 PM,48.2,44.6,87,30.36,0.5,South,5.8,-,0.01,Fog,Fog,190,2013-02-12 20:46:00
12:53 PM,48.0,44.1,86,30.36,0.2,South,6.9,-,0.01,Fog,Fog,190,2013-02-12 20:53:00
1:53 PM,48.0,44.1,86,30.37,0.2,SSW,6.9,-,0.02,Fog-Rain,Light Rain,210,2013-02-12 21:53:00
2:29 PM,48.2,44.6,87,30.35,0.5,SW,9.2,-,0.08,Fog-Rain,Light Rain,230,2013-02-12 22:29:00
2:53 PM,48.9,45.0,86,30.36,0.5,SW,10.4,18.4,0.09,Fog,Fog,220,2013-02-12 22:53:00
3:39 PM,48.2,44.6,87,30.34,1.5,SW,10.4,17.3,0.02,,Overcast,220,2013-02-12 23:39:00
3:46 PM,48.2,46.4,93,30.34,3.0,SSW,8.1,17.3,0.02,,Overcast,200,2013-02-12 23:46:00
3:53 PM,48.9,45.0,86,30.35,4.0,SSW,8.1,-,0.02,,Overcast,200,2013-02-12 23:53:00
4:34 PM,48.2,44.6,87,30.35,1.8,SW,8.1,19.6,0.00,Rain,Light Rain,220,2013-02-13 00:34:00
4:42 PM,48.2,44.6,87,30.34,0.8,SW,10.4,18.4,0.00,Rain,Light Rain,220,2013-02-13 00:42:00
4:53 PM,48.9,45.0,86,30.34,0.5,SW,10.4,-,0.01,Fog-Rain,Light Rain,220,2013-02-13 00:53:00
5:18 PM,48.2,44.6,87,30.33,0.8,SSW,6.9,16.1,0.04,Rain,Light Rain,210,2013-02-13 01:18:00
5:31 PM,48.2,44.6,87,30.33,1.0,SW,6.9,-,0.06,Rain,Rain,220,2013-02-13 01:31:00
5:53 PM,48.0,45.0,89,30.33,1.0,SSW,5.8,-,0.12,Rain,Rain,210,2013-02-13 01:53:00
6:11 PM,48.2,44.6,87,30.32,1.5,SSW,9.2,-,0.05,Rain,Light Rain,210,2013-02-13 02:11:00
6:25 PM,48.2,44.6,87,30.32,1.2,SW,9.2,-,0.08,Rain,Light Rain,220,2013-02-13 02:25:00
6:51 PM,48.2,44.6,87,30.33,0.8,SW,10.4,-,0.13,Rain,Rain,230,2013-02-13 02:51:00
6:53 PM,48.9,45.0,86,30.33,1.0,SW,6.9,-,0.14,Rain,Light Rain,220,2013-02-13 02:53:00
7:07 PM,48.2,44.6,87,30.32,1.8,SW,9.2,-,0.01,Rain,Light Rain,230,2013-02-13 03:07:00
7:25 PM,48.2,44.6,87,30.33,1.2,WSW,13.8,18.4,0.03,Rain,Light Rain,240,2013-02-13 03:25:00
7:43 PM,48.2,44.6,87,30.33,1.0,WSW,12.7,-,0.03,Rain,Light Rain,240,2013-02-13 03:43:00
7:53 PM,48.9,45.0,86,30.33,1.0,WSW,9.2,-,0.04,Rain,Light Rain,240,2013-02-13 03:53:00
8:04 PM,48.2,44.6,87,30.32,2.0,WSW,10.4,18.4,0.00,Rain,Light Rain,240,2013-02-13 04:04:00
8:12 PM,48.2,44.6,87,30.33,4.0,WSW,11.5,17.3,0.00,,Overcast,240,2013-02-13 04:12:00
8:35 PM,48.2,44.6,87,30.33,1.8,West,9.2,-,0.00,Rain,Light Rain,270,2013-02-13 04:35:00
8:46 PM,48.2,44.6,87,30.33,3.0,West,10.4,18.4,0.00,,Overcast,260,2013-02-13 04:46:00
8:53 PM,48.0,44.1,86,30.34,3.0,West,8.1,16.1,0.00,,Overcast,270,2013-02-13 04:53:00
9:13 PM,48.2,42.8,82,30.34,2.0,WNW,8.1,-,0.00,Rain,Light Rain,290,2013-02-13 05:13:00
9:25 PM,46.4,42.8,87,30.34,3.0,Variable,3.5,-,0.00,,Overcast,0,2013-02-13 05:25:00
9:35 PM,46.4,42.8,87,30.33,5.0,Calm,Calm,-,0.00,,Overcast,0,2013-02-13 05:35:00
9:53 PM,46.9,43.0,86,30.34,4.0,Calm,Calm,-,0.00,,Overcast,0,2013-02-13 05:53:00
10:21 PM,46.4,42.8,87,30.34,2.5,South,3.5,-,0.00,Rain,Light Rain,190,2013-02-13 06:21:00
10:53 PM,46.0,41.0,83,30.35,5.0,Calm,Calm,-,0.01,,Haze,0,2013-02-13 06:53:00
11:24 PM,46.4,42.8,87,30.35,4.0,Calm,Calm,-,N/A,,Overcast,0,2013-02-13 07:24:00
11:53 PM,46.0,41.0,83,30.36,5.0,Calm,Calm,-,N/A,,Haze,0,2013-02-13 07:53:00